START_TIME,STEP,MOV.,AL01,t_acc.,AL02,t_acc.,E37,t_acc.,H21,t_acc.
1980-11-13 12:00:22.850 ,4,0,0.,24.0,0.,24.0,0.,24.0,0.,24.0
1980-11-13 12:00:46.850 ,5,1,0.,24.0,0.,24.0,0.,24.0,0.,24.0
1980-11-13 12:01:10.850 ,5,0,0.,24.0,0.,24.0,0.,24.0,0.,24.0
1980-11-13 12:01:34.850 ,6,1,0.,24.0,0.,24.0,0.,24.0,0.,24.0
1980-11-13 12:01:58.850 ,6,0,0.,24.0,0.,24.0,0.,24.0,0.,24.0
1980-11-13 12:02:22.850 ,7,1,3.,24.0,0.,24.0,0.,24.0,0.,24.0
1980-11-13 12:02:46.850 ,7,0,6.,24.0,0.,24.0,0.,24.0,0.,24.0
1980-11-13 12:03:10.850 ,7,1,11.,24.0,0.,24.0,0.,24.0,0.,24.0
1980-11-13 12:03:34.850 ,7,0,8.,24.0,0.,24.0,0.,24.0,0.,24.0
1980-11-13 12:03:58.850 ,6,1,5.,24.0,0.,24.0,0.,24.0,0.,24.0
1980-11-13 12:04:22.850 ,6,0,0.,24.0,0.,24.0,0.,24.0,0.,24.0
1980-11-13 12:04:46.850 ,5,1,0.,24.0,0.,24.0,0.,24.0,0.,24.0
1980-11-13 12:05:10.850 ,5,0,0.,24.0,0.,24.0,0.,24.0,0.,24.0
1980-11-13 12:05:34.850 ,4,1,0.,24.0,0.,24.0,0.,24.0,0.,24.0
1980-11-13 12:05:58.850 ,4,0,0.,24.0,0.,24.0,0.,24.0,0.,24.0
1980-11-13 12:06:22.850 ,3,1,0.,24.0,0.,24.0,0.,24.0,0.,24.0
1980-11-13 12:06:46.850 ,3,0,0.,24.0,0.,24.0,0.,24.0,0.,24.0
1980-11-13 12:07:10.850 ,2,1,0.,24.0,0.,24.0,0.,24.0,0.,24.0
1980-11-13 12:07:34.850 ,2,0,0.,24.0,0.,24.0,0.,24.0,0.,24.0
1980-11-13 12:07:58.850 ,1,1,0.,24.0,0.,24.0,0.,24.0,0.,24.0
1980-11-13 12:08:22.850 ,1,0,0.,24.0,0.,24.0,0.,24.0,0.,24.0
1980-11-13 12:08:46.850 ,0,1,0.,24.0,0.,24.0,0.,24.0,0.,24.0
1980-11-13 12:09:10.850 ,0,0,0.,24.0,0.,24.0,0.,24.0,0.,24.0
1980-11-13 12:09:34.850 ,0,1,0.,24.0,0.,24.0,0.,24.0,0.,24.0
1980-11-13 12:09:58.850 ,0,0,0.,24.0,0.,24.0,0.,24.0,0.,24.0
1980-11-13 12:10:22.850 ,1,1,0.,24.0,0.,24.0,0.,24.0,0.,24.0
1980-11-13 12:10:46.850 ,1,0,0.,24.0,0.,24.0,0.,24.0,0.,24.0
1980-11-13 12:11:10.850 ,2,1,0.,24.0,0.,24.0,0.,24.0,0.,24.0
1980-11-13 12:11:34.850 ,2,0,0.,24.0,0.,24.0,0.,24.0,0.,24.0
1980-11-13 12:11:58.850 ,3,1,0.,24.0,0.,24.0,0.,24.0,0.,24.0
1980-11-13 12:12:22.850 ,3,0,0.,24.0,0.,24.0,0.,24.0,0.,24.0
1980-11-13 12:12:46.850 ,4,1,0.,24.0,0.,24.0,0.,24.0,0.,24.0
1980-11-13 12:13:10.850 ,4,0,0.,24.0,0.,24.0,0.,24.0,0.,24.0
1980-11-13 12:13:34.850 ,5,1,0.,24.0,0.,24.0,0.,24.0,0.,24.0
1980-11-13 12:13:58.850 ,5,0,0.,24.0,0.,24.0,0.,24.0,0.,24.0
1980-11-13 12:14:22.850 ,6,1,0.,24.0,0.,24.0,0.,24.0,0.,24.0
1980-11-13 12:14:46.850 ,6,0,0.,24.0,0.,24.0,0.,24.0,0.,24.0
1980-11-13 12:15:10.850 ,7,1,2.,24.0,0.,24.0,0.,24.0,0.,24.0
1980-11-13 12:15:34.850 ,7,0,6.,24.0,0.,24.0,0.,24.0,0.,24.0
1980-11-13 12:15:58.850 ,7,1,8.,24.0,0.,24.0,0.,24.0,0.,24.0
1980-11-13 12:16:22.850 ,7,0,8.,24.0,0.,24.0,0.,24.0,0.,24.0
1980-11-13 12:16:46.850 ,6,1,8.,24.0,0.,24.0,0.,24.0,0.,24.0
1980-11-13 12:17:10.850 ,6,0,0.,24.0,0.,24.0,0.,24.0,0.,24.0
1980-11-13 12:17:34.850 ,5,1,0.,24.0,0.,24.0,0.,24.0,0.,24.0
1980-11-13 12:17:58.850 ,5,0,0.,24.0,0.,24.0,0.,24.0,0.,24.0
1980-11-13 12:18:22.850 ,4,1,0.,24.0,0.,24.0,0.,24.0,0.,24.0
1980-11-13 12:18:46.850 ,4,0,0.,24.0,0.,24.0,0.,24.0,0.,24.0
1980-11-13 12:19:10.850 ,3,1,0.,24.0,0.,24.0,0.,24.0,0.,24.0
1980-11-13 12:19:34.850 ,3,0,0.,24.0,0.,24.0,0.,24.0,0.,24.0
1980-11-13 12:19:58.850 ,2,1,0.,24.0,0.,24.0,0.,24.0,0.,24.0
1980-11-13 12:20:22.850 ,2,0,0.,24.0,0.,24.0,0.,24.0,0.,24.0
1980-11-13 12:20:46.850 ,1,1,0.,24.0,0.,24.0,0.,24.0,0.,24.0
1980-11-13 12:21:10.850 ,1,0,0.,24.0,0.,24.0,0.,24.0,0.,24.0
1980-11-13 12:21:34.850 ,0,1,0.,24.0,0.,24.0,0.,24.0,0.,24.0
1980-11-13 12:21:58.850 ,0,0,0.,24.0,0.,24.0,0.,24.0,0.,24.0
1980-11-13 12:22:22.850 ,0,1,0.,24.0,0.,24.0,0.,24.0,0.,24.0
1980-11-13 12:22:46.850 ,0,0,0.,24.0,0.,24.0,0.,24.0,0.,24.0
1980-11-13 12:23:10.850 ,1,1,0.,24.0,0.,24.0,0.,24.0,0.,24.0
1980-11-13 12:23:34.850 ,1,0,0.,24.0,0.,24.0,0.,24.0,0.,24.0
1980-11-13 12:23:58.850 ,2,1,0.,24.0,0.,24.0,0.,24.0,0.,24.0
1980-11-13 12:24:22.850 ,2,0,0.,24.0,0.,24.0,0.,24.0,0.,24.0
1980-11-13 12:24:46.850 ,3,1,0.,24.0,0.,24.0,0.,24.0,0.,24.0
1980-11-13 12:25:10.850 ,3,0,0.,24.0,0.,24.0,0.,24.0,0.,24.0
1980-11-13 12:25:34.850 ,4,1,0.,24.0,0.,24.0,0.,24.0,0.,24.0
1980-11-13 12:25:58.850 ,4,0,0.,24.0,0.,24.0,0.,24.0,0.,24.0
1980-11-13 12:26:22.850 ,5,1,0.,24.0,0.,24.0,0.,24.0,0.,24.0
1980-11-13 12:26:46.850 ,5,0,0.,24.0,0.,24.0,0.,24.0,0.,24.0
1980-11-13 12:27:10.850 ,6,1,0.,24.0,0.,24.0,0.,24.0,0.,24.0
1980-11-13 12:27:34.850 ,6,0,0.,24.0,0.,24.0,0.,24.0,0.,24.0
1980-11-13 12:27:58.850 ,7,1,1.,24.0,0.,24.0,0.,24.0,0.,24.0
1980-11-13 12:28:22.850 ,7,0,12.,24.0,0.,24.0,0.,24.0,0.,24.0
1980-11-13 12:28:46.850 ,7,1,16.,24.0,1.,24.0,0.,24.0,0.,24.0
1980-11-13 12:29:10.850 ,7,0,10.,24.0,0.,24.0,0.,24.0,0.,24.0
1980-11-13 12:29:34.850 ,6,1,8.,24.0,0.,24.0,0.,24.0,0.,24.0
1980-11-13 12:29:58.850 ,6,0,0.,24.0,0.,24.0,0.,24.0,0.,24.0
1980-11-13 12:30:22.850 ,5,1,0.,24.0,0.,24.0,0.,24.0,0.,24.0
1980-11-13 12:30:46.850 ,5,0,0.,24.0,0.,24.0,0.,24.0,0.,24.0
1980-11-13 12:31:10.850 ,4,1,0.,24.0,0.,24.0,0.,24.0,0.,24.0
1980-11-13 12:31:34.850 ,4,0,0.,24.0,0.,24.0,0.,24.0,0.,24.0
1980-11-13 12:31:58.850 ,3,1,0.,24.0,0.,24.0,0.,24.0,0.,24.0
1980-11-13 12:32:22.850 ,3,0,0.,24.0,0.,24.0,0.,24.0,0.,24.0
1980-11-13 12:32:46.850 ,2,1,0.,24.0,0.,24.0,0.,24.0,0.,24.0
1980-11-13 12:33:10.850 ,2,0,0.,24.0,0.,24.0,0.,24.0,0.,24.0
1980-11-13 12:33:34.850 ,1,1,0.,24.0,0.,24.0,0.,24.0,0.,24.0
1980-11-13 12:33:58.850 ,1,0,0.,24.0,0.,24.0,0.,24.0,0.,24.0
1980-11-13 12:34:22.850 ,0,1,0.,24.0,0.,24.0,0.,24.0,0.,24.0
1980-11-13 12:34:46.850 ,0,0,0.,24.0,0.,24.0,0.,24.0,0.,24.0
1980-11-13 12:35:10.850 ,0,1,0.,24.0,0.,24.0,0.,24.0,0.,24.0
1980-11-13 12:35:34.850 ,0,0,0.,24.0,0.,24.0,0.,24.0,0.,24.0
1980-11-13 12:35:58.850 ,1,1,0.,24.0,0.,24.0,0.,24.0,0.,24.0
1980-11-13 12:36:22.850 ,1,0,0.,24.0,0.,24.0,0.,24.0,0.,24.0
1980-11-13 12:36:46.850 ,2,1,0.,24.0,0.,24.0,0.,24.0,0.,24.0
1980-11-13 12:37:10.850 ,2,0,0.,24.0,0.,24.0,0.,24.0,0.,24.0
1980-11-13 12:37:34.850 ,3,1,0.,24.0,1.,24.0,0.,24.0,0.,24.0
1980-11-13 12:37:58.850 ,3,0,0.,24.0,0.,24.0,0.,24.0,0.,24.0
1980-11-13 12:38:22.850 ,4,1,0.,24.0,0.,24.0,0.,24.0,0.,24.0
1980-11-13 12:38:46.850 ,4,0,0.,24.0,0.,24.0,0.,24.0,0.,24.0
1980-11-13 12:39:10.850 ,5,1,0.,24.0,0.,24.0,0.,24.0,0.,24.0
1980-11-13 12:39:34.850 ,5,0,0.,24.0,0.,24.0,0.,24.0,0.,24.0
1980-11-13 12:39:58.850 ,6,1,0.,24.0,0.,24.0,0.,24.0,0.,24.0
1980-11-13 12:40:22.850 ,6,0,0.,24.0,0.,24.0,0.,24.0,0.,24.0
1980-11-13 12:40:46.850 ,7,1,2.,24.0,0.,24.0,0.,24.0,0.,24.0
1980-11-13 12:41:10.850 ,7,0,12.,24.0,0.,24.0,0.,24.0,0.,24.0
1980-11-13 12:41:34.850 ,7,1,7.,24.0,0.,24.0,0.,24.0,0.,24.0
1980-11-13 12:41:58.850 ,0,0,7.,24.0,0.,24.0,0.,24.0,0.,24.0
1980-11-13 12:43:42.650 ,0,0,0.,24.0,0.,24.0,0.,24.0,0.,24.0
1980-11-13 12:43:58.850 ,4,1,0.,24.0,0.,24.0,0.,24.0,0.,24.0
1980-11-13 12:44:22.850 ,4,0,0.,24.0,0.,24.0,0.,24.0,0.,24.0
1980-11-13 12:44:46.850 ,3,1,0.,24.0,0.,24.0,0.,24.0,0.,24.0
1980-11-13 12:45:10.850 ,3,0,0.,24.0,0.,24.0,0.,24.0,0.,24.0
1980-11-13 12:45:34.850 ,2,1,0.,24.0,0.,24.0,0.,24.0,0.,24.0
1980-11-13 12:45:58.850 ,2,0,0.,24.0,0.,24.0,0.,24.0,0.,24.0
1980-11-13 12:46:22.850 ,1,1,0.,24.0,0.,24.0,0.,24.0,0.,24.0
1980-11-13 12:46:46.850 ,1,0,0.,24.0,0.,24.0,0.,24.0,0.,24.0
1980-11-13 12:47:10.850 ,0,1,0.,24.0,0.,24.0,0.,24.0,0.,24.0
1980-11-13 12:47:34.850 ,0,0,0.,24.0,0.,24.0,0.,24.0,0.,24.0
1980-11-13 12:47:58.850 ,0,1,0.,24.0,0.,24.0,0.,24.0,0.,24.0
1980-11-13 12:48:22.850 ,0,0,0.,24.0,0.,24.0,0.,24.0,0.,24.0
1980-11-13 12:48:46.850 ,1,1,0.,24.0,0.,24.0,0.,24.0,0.,24.0
1980-11-13 12:49:10.850 ,1,0,0.,24.0,0.,24.0,0.,24.0,0.,24.0
1980-11-13 12:49:34.850 ,2,1,0.,24.0,0.,24.0,0.,24.0,0.,24.0
1980-11-13 12:49:58.850 ,2,0,0.,24.0,0.,24.0,0.,24.0,0.,24.0
1980-11-13 12:50:22.850 ,3,1,0.,24.0,0.,24.0,0.,24.0,0.,24.0
1980-11-13 12:50:46.850 ,3,0,0.,24.0,0.,24.0,0.,24.0,0.,24.0
1980-11-13 12:51:10.850 ,4,1,0.,24.0,0.,24.0,0.,24.0,0.,24.0
1980-11-13 12:51:34.850 ,4,0,0.,24.0,0.,24.0,0.,24.0,0.,24.0
1980-11-13 12:51:58.850 ,5,1,0.,24.0,0.,24.0,0.,24.0,0.,24.0
1980-11-13 12:52:22.850 ,5,0,0.,24.0,0.,24.0,0.,24.0,0.,24.0
1980-11-13 12:52:46.850 ,6,1,0.,24.0,0.,24.0,0.,24.0,0.,24.0
1980-11-13 12:53:10.850 ,6,0,0.,24.0,0.,24.0,0.,24.0,0.,24.0
1980-11-13 12:53:34.850 ,7,1,0.,24.0,0.,24.0,0.,24.0,0.,24.0
1980-11-13 12:53:58.850 ,7,0,17.,24.0,0.,24.0,0.,24.0,0.,24.0
1980-11-13 12:54:22.850 ,7,1,7.,24.0,0.,24.0,0.,24.0,0.,24.0
1980-11-13 12:54:46.850 ,7,0,8.,24.0,0.,24.0,0.,24.0,0.,24.0
1980-11-13 12:55:10.850 ,6,1,7.,24.0,0.,24.0,0.,24.0,0.,24.0
1980-11-13 12:55:34.850 ,6,0,0.,24.0,0.,24.0,0.,24.0,0.,24.0
1980-11-13 12:55:58.850 ,5,1,0.,24.0,0.,24.0,0.,24.0,0.,24.0
1980-11-13 12:56:22.850 ,5,0,0.,24.0,0.,24.0,0.,24.0,0.,24.0
1980-11-13 12:56:46.850 ,4,1,0.,24.0,0.,24.0,0.,24.0,0.,24.0
1980-11-13 12:57:10.850 ,4,0,0.,24.0,0.,24.0,0.,24.0,0.,24.0
1980-11-13 12:57:34.850 ,3,1,0.,24.0,0.,24.0,0.,24.0,0.,24.0
1980-11-13 12:57:58.850 ,3,0,0.,24.0,0.,24.0,0.,24.0,0.,24.0
1980-11-13 12:58:22.850 ,2,1,0.,24.0,0.,24.0,0.,24.0,0.,24.0
1980-11-13 12:58:46.850 ,2,0,0.,24.0,0.,24.0,0.,24.0,0.,24.0
1980-11-13 12:59:10.850 ,1,1,0.,24.0,0.,24.0,0.,24.0,0.,24.0
1980-11-13 12:59:34.850 ,1,0,0.,24.0,0.,24.0,0.,24.0,0.,24.0
1980-11-13 12:59:58.850 ,0,1,0.,24.0,0.,24.0,0.,24.0,0.,24.0
1980-11-13 13:00:22.850 ,0,0,0.,24.0,0.,24.0,0.,24.0,0.,24.0
1980-11-13 13:00:46.850 ,0,1,0.,24.0,0.,24.0,0.,24.0,0.,24.0
1980-11-13 13:01:10.850 ,0,0,0.,24.0,0.,24.0,0.,24.0,0.,24.0
1980-11-13 13:01:34.850 ,1,1,0.,24.0,0.,24.0,0.,24.0,0.,24.0
1980-11-13 13:01:58.850 ,1,0,0.,24.0,0.,24.0,0.,24.0,0.,24.0
1980-11-13 13:02:22.850 ,2,1,0.,24.0,0.,24.0,0.,24.0,0.,24.0
1980-11-13 13:02:46.850 ,2,0,0.,24.0,0.,24.0,0.,24.0,0.,24.0
1980-11-13 13:03:10.850 ,3,1,0.,24.0,0.,24.0,0.,24.0,0.,24.0
1980-11-13 13:03:34.850 ,3,0,0.,24.0,0.,24.0,0.,24.0,0.,24.0
1980-11-13 13:03:58.850 ,4,1,0.,24.0,0.,24.0,0.,24.0,0.,24.0
1980-11-13 13:04:22.850 ,4,0,0.,24.0,0.,24.0,0.,24.0,0.,24.0
1980-11-13 13:04:46.850 ,5,1,0.,24.0,0.,24.0,0.,24.0,0.,24.0
1980-11-13 13:05:10.850 ,5,0,0.,24.0,0.,24.0,0.,24.0,0.,24.0
1980-11-13 13:05:34.850 ,6,1,0.,24.0,0.,24.0,0.,24.0,0.,24.0
1980-11-13 13:05:58.850 ,6,0,0.,24.0,0.,24.0,0.,24.0,0.,24.0
1980-11-13 13:06:22.850 ,7,1,0.,24.0,0.,24.0,0.,24.0,0.,24.0
1980-11-13 13:06:46.850 ,7,0,9.,24.0,0.,24.0,0.,24.0,0.,24.0
1980-11-13 13:07:10.850 ,7,1,7.,24.0,0.,24.0,0.,24.0,0.,24.0
1980-11-13 13:07:34.850 ,7,0,10.,24.0,0.,24.0,0.,24.0,0.,24.0
1980-11-13 13:07:58.850 ,6,1,8.,24.0,0.,24.0,0.,24.0,0.,24.0
1980-11-13 13:08:22.850 ,6,0,0.,24.0,0.,24.0,0.,24.0,0.,24.0
1980-11-13 13:08:46.850 ,5,1,0.,24.0,0.,24.0,0.,24.0,0.,24.0
1980-11-13 13:09:10.850 ,5,0,0.,24.0,0.,24.0,0.,24.0,0.,24.0
1980-11-13 13:09:34.850 ,4,1,0.,24.0,0.,24.0,0.,24.0,0.,24.0
1980-11-13 13:09:58.850 ,4,0,0.,24.0,0.,24.0,0.,24.0,0.,24.0
1980-11-13 13:10:22.850 ,3,1,0.,24.0,0.,24.0,0.,24.0,0.,24.0
1980-11-13 13:10:46.850 ,3,0,0.,24.0,0.,24.0,0.,24.0,0.,24.0
1980-11-13 13:11:10.850 ,2,1,0.,24.0,0.,24.0,0.,24.0,0.,24.0
1980-11-13 13:11:34.850 ,2,0,0.,24.0,0.,24.0,0.,24.0,0.,24.0
1980-11-13 13:11:58.850 ,1,1,0.,24.0,0.,24.0,0.,24.0,0.,24.0
1980-11-13 13:12:22.850 ,1,0,0.,24.0,0.,24.0,0.,24.0,0.,24.0
1980-11-13 13:12:46.850 ,0,1,0.,24.0,0.,24.0,0.,24.0,0.,24.0
1980-11-13 13:13:10.850 ,0,0,0.,24.0,0.,24.0,0.,24.0,0.,24.0
1980-11-13 13:13:34.850 ,0,1,0.,24.0,0.,24.0,0.,24.0,0.,24.0
1980-11-13 13:13:58.850 ,0,0,0.,24.0,0.,24.0,0.,24.0,0.,24.0
1980-11-13 13:14:22.850 ,1,1,0.,24.0,0.,24.0,0.,24.0,0.,24.0
1980-11-13 13:14:46.850 ,1,0,0.,24.0,0.,24.0,0.,24.0,0.,24.0
1980-11-13 13:15:10.850 ,2,1,0.,24.0,0.,24.0,0.,24.0,0.,24.0
1980-11-13 13:15:34.850 ,2,0,0.,24.0,0.,24.0,0.,24.0,0.,24.0
1980-11-13 13:15:58.850 ,3,1,0.,24.0,0.,24.0,0.,24.0,0.,24.0
1980-11-13 13:16:22.850 ,3,0,0.,24.0,0.,24.0,0.,24.0,0.,24.0
1980-11-13 13:16:46.850 ,4,1,0.,24.0,0.,24.0,0.,24.0,0.,24.0
1980-11-13 13:17:10.850 ,4,0,0.,24.0,0.,24.0,0.,24.0,0.,24.0
1980-11-13 13:17:34.850 ,5,1,0.,24.0,0.,24.0,0.,24.0,0.,24.0
1980-11-13 13:17:58.850 ,5,0,0.,24.0,0.,24.0,0.,24.0,0.,24.0
1980-11-13 13:18:22.850 ,6,1,0.,24.0,0.,24.0,0.,24.0,0.,24.0
1980-11-13 13:18:46.850 ,6,0,0.,24.0,0.,24.0,0.,24.0,0.,24.0
1980-11-13 13:19:10.850 ,7,1,1.,24.0,0.,24.0,0.,24.0,0.,24.0
1980-11-13 13:19:34.850 ,7,0,13.,24.0,0.,24.0,0.,24.0,0.,24.0
1980-11-13 13:19:58.850 ,7,1,9.,24.0,0.,24.0,0.,24.0,0.,24.0
1980-11-13 13:20:22.850 ,7,0,9.,24.0,0.,24.0,0.,24.0,0.,24.0
1980-11-13 13:20:46.850 ,6,1,7.,24.0,0.,24.0,0.,24.0,0.,24.0
1980-11-13 13:21:10.850 ,6,0,0.,24.0,0.,24.0,0.,24.0,0.,24.0
1980-11-13 13:21:34.850 ,5,1,0.,24.0,0.,24.0,0.,24.0,0.,24.0
1980-11-13 13:21:58.850 ,5,0,0.,24.0,0.,24.0,0.,24.0,0.,24.0
1980-11-13 13:22:22.850 ,4,1,0.,24.0,0.,24.0,0.,24.0,0.,24.0
1980-11-13 13:22:46.850 ,4,0,0.,24.0,0.,24.0,0.,24.0,0.,24.0
1980-11-13 13:23:10.850 ,3,1,0.,24.0,0.,24.0,0.,24.0,0.,24.0
1980-11-13 13:23:34.850 ,3,0,0.,24.0,0.,24.0,0.,24.0,0.,24.0
1980-11-13 13:23:58.850 ,2,1,0.,24.0,0.,24.0,0.,24.0,0.,24.0
1980-11-13 13:24:22.850 ,2,0,0.,24.0,0.,24.0,0.,24.0,0.,24.0
1980-11-13 13:24:46.850 ,1,1,0.,24.0,0.,24.0,0.,24.0,0.,24.0
1980-11-13 13:25:10.850 ,1,0,0.,24.0,0.,24.0,0.,24.0,0.,24.0
1980-11-13 13:25:34.850 ,0,1,0.,24.0,0.,24.0,0.,24.0,0.,24.0
1980-11-13 13:25:58.850 ,0,0,0.,24.0,0.,24.0,0.,24.0,0.,24.0
1980-11-13 13:26:22.850 ,0,1,0.,24.0,0.,24.0,0.,24.0,0.,24.0
1980-11-13 13:26:46.850 ,0,0,0.,24.0,0.,24.0,0.,24.0,0.,24.0
1980-11-13 13:27:10.850 ,1,1,0.,24.0,0.,24.0,0.,24.0,0.,24.0
1980-11-13 13:27:34.850 ,1,0,0.,24.0,0.,24.0,0.,24.0,0.,24.0
1980-11-13 13:27:58.850 ,2,1,0.,24.0,0.,24.0,0.,24.0,0.,24.0
1980-11-13 13:28:22.850 ,2,0,0.,24.0,0.,24.0,0.,24.0,0.,24.0
1980-11-13 13:28:46.850 ,3,1,0.,24.0,0.,24.0,0.,24.0,0.,24.0
1980-11-13 13:29:10.850 ,3,0,0.,24.0,0.,24.0,0.,24.0,0.,24.0
1980-11-13 13:29:34.850 ,4,1,0.,24.0,0.,24.0,0.,24.0,0.,24.0
1980-11-13 13:29:58.850 ,4,0,0.,24.0,0.,24.0,0.,24.0,0.,24.0
1980-11-13 13:30:22.850 ,5,1,0.,24.0,0.,24.0,0.,24.0,0.,24.0
1980-11-13 13:30:46.850 ,5,0,0.,24.0,0.,24.0,0.,24.0,0.,24.0
1980-11-13 13:31:10.850 ,6,1,0.,24.0,0.,24.0,0.,24.0,0.,24.0
1980-11-13 13:31:34.850 ,6,0,0.,24.0,0.,24.0,0.,24.0,0.,24.0
1980-11-13 13:31:58.850 ,7,1,2.,24.0,0.,24.0,0.,24.0,0.,24.0
1980-11-13 13:32:22.850 ,7,0,10.,24.0,0.,24.0,0.,24.0,0.,24.0
1980-11-13 13:32:46.850 ,7,1,8.,24.0,0.,24.0,0.,24.0,0.,24.0
1980-11-13 13:33:10.850 ,7,0,11.,24.0,0.,24.0,0.,24.0,0.,24.0
1980-11-13 13:33:34.850 ,6,1,8.,24.0,0.,24.0,0.,24.0,0.,24.0
1980-11-13 13:33:58.850 ,6,0,0.,24.0,0.,24.0,0.,24.0,0.,24.0
1980-11-13 13:34:22.850 ,5,1,0.,24.0,0.,24.0,0.,24.0,0.,24.0
1980-11-13 13:34:46.850 ,5,0,0.,24.0,0.,24.0,0.,24.0,0.,24.0
1980-11-13 13:35:10.850 ,4,1,0.,24.0,0.,24.0,0.,24.0,0.,24.0
1980-11-13 13:35:34.850 ,4,0,0.,24.0,0.,24.0,0.,24.0,0.,24.0
1980-11-13 13:35:58.850 ,3,1,0.,24.0,0.,24.0,0.,24.0,0.,24.0
1980-11-13 13:36:22.850 ,3,0,0.,24.0,0.,24.0,0.,24.0,0.,24.0
1980-11-13 13:36:46.850 ,2,1,0.,24.0,0.,24.0,0.,24.0,0.,24.0
1980-11-13 13:37:10.850 ,2,0,0.,24.0,0.,24.0,0.,24.0,0.,24.0
1980-11-13 13:37:34.850 ,1,1,0.,24.0,0.,24.0,0.,24.0,0.,24.0
1980-11-13 13:37:58.850 ,1,0,0.,24.0,0.,24.0,0.,24.0,0.,24.0
1980-11-13 13:38:22.850 ,0,1,0.,24.0,0.,24.0,0.,24.0,0.,24.0
1980-11-13 13:38:46.850 ,0,0,0.,24.0,0.,24.0,0.,24.0,0.,24.0
1980-11-13 13:39:10.850 ,0,1,0.,24.0,0.,24.0,0.,24.0,0.,24.0
1980-11-13 13:39:34.850 ,0,0,0.,24.0,0.,24.0,0.,24.0,0.,24.0
1980-11-13 13:39:58.850 ,1,1,0.,24.0,0.,24.0,0.,24.0,0.,24.0
1980-11-13 13:40:22.850 ,1,0,0.,24.0,0.,24.0,0.,24.0,0.,24.0
1980-11-13 13:40:46.850 ,2,1,0.,24.0,0.,24.0,0.,24.0,0.,24.0
1980-11-13 13:41:10.850 ,2,0,0.,24.0,0.,24.0,0.,24.0,0.,24.0
1980-11-13 13:41:34.850 ,3,1,0.,24.0,0.,24.0,0.,24.0,0.,24.0
1980-11-13 13:41:58.850 ,3,0,0.,24.0,0.,24.0,0.,24.0,0.,24.0
1980-11-13 13:42:22.850 ,4,1,0.,24.0,0.,24.0,0.,24.0,0.,24.0
1980-11-13 13:42:46.850 ,4,0,0.,24.0,0.,24.0,0.,24.0,0.,24.0
1980-11-13 13:43:10.850 ,5,1,0.,24.0,0.,24.0,0.,24.0,0.,24.0
1980-11-13 13:43:34.850 ,5,0,0.,24.0,0.,24.0,0.,24.0,0.,24.0
1980-11-13 13:43:58.850 ,6,1,0.,24.0,0.,24.0,0.,24.0,0.,24.0
1980-11-13 13:44:22.850 ,6,0,0.,24.0,0.,24.0,0.,24.0,0.,24.0
1980-11-13 13:44:46.850 ,7,1,1.,24.0,0.,24.0,0.,24.0,0.,24.0
1980-11-13 13:45:10.850 ,7,0,9.,24.0,0.,24.0,0.,24.0,0.,24.0
1980-11-13 13:45:34.850 ,7,1,13.,24.0,0.,24.0,0.,24.0,0.,24.0
1980-11-13 13:45:58.850 ,7,0,6.,24.0,0.,24.0,0.,24.0,0.,24.0
1980-11-13 13:46:22.850 ,6,1,5.,24.0,0.,24.0,0.,24.0,0.,24.0
1980-11-13 13:46:46.850 ,6,0,0.,24.0,0.,24.0,0.,24.0,0.,24.0
1980-11-13 13:47:10.850 ,5,1,0.,24.0,0.,24.0,0.,24.0,0.,24.0
1980-11-13 13:47:34.850 ,5,0,0.,24.0,0.,24.0,0.,24.0,0.,24.0
1980-11-13 13:47:58.850 ,4,1,0.,24.0,0.,24.0,0.,24.0,0.,24.0
1980-11-13 13:48:22.850 ,4,0,0.,24.0,0.,24.0,0.,24.0,0.,24.0
1980-11-13 13:48:46.850 ,3,1,0.,24.0,0.,24.0,0.,24.0,0.,24.0
1980-11-13 13:49:10.850 ,3,0,0.,24.0,0.,24.0,0.,24.0,0.,24.0
1980-11-13 13:49:34.850 ,2,1,0.,24.0,0.,24.0,0.,24.0,0.,24.0
1980-11-13 13:49:58.850 ,2,0,1.,24.0,0.,24.0,0.,24.0,0.,24.0
1980-11-13 13:50:22.850 ,1,1,0.,24.0,0.,24.0,0.,24.0,0.,24.0
1980-11-13 13:50:46.850 ,1,0,0.,24.0,0.,24.0,0.,24.0,0.,24.0
1980-11-13 13:51:10.850 ,0,1,0.,24.0,0.,24.0,0.,24.0,0.,24.0
1980-11-13 13:51:34.850 ,0,0,0.,24.0,0.,24.0,0.,24.0,0.,24.0
1980-11-13 13:51:58.850 ,0,1,0.,24.0,0.,24.0,0.,24.0,0.,24.0
1980-11-13 13:52:22.850 ,0,0,0.,24.0,0.,24.0,0.,24.0,0.,24.0
1980-11-13 13:52:46.850 ,1,1,0.,24.0,0.,24.0,0.,24.0,0.,24.0
1980-11-13 13:53:10.850 ,1,0,0.,24.0,0.,24.0,0.,24.0,0.,24.0
1980-11-13 13:53:34.850 ,2,1,0.,24.0,0.,24.0,0.,24.0,0.,24.0
1980-11-13 13:53:58.850 ,2,0,0.,24.0,0.,24.0,0.,24.0,0.,24.0
1980-11-13 13:54:22.850 ,3,1,0.,24.0,0.,24.0,0.,24.0,0.,24.0
1980-11-13 13:54:46.850 ,3,0,0.,24.0,0.,24.0,0.,24.0,0.,24.0
1980-11-13 13:55:10.850 ,4,1,0.,24.0,0.,24.0,0.,24.0,0.,24.0
1980-11-13 13:55:34.850 ,4,0,0.,24.0,0.,24.0,0.,24.0,0.,24.0
1980-11-13 13:55:58.850 ,5,1,0.,24.0,0.,24.0,0.,24.0,0.,24.0
1980-11-13 13:56:22.850 ,5,0,0.,24.0,0.,24.0,0.,24.0,0.,24.0
1980-11-13 13:56:46.850 ,6,1,0.,24.0,0.,24.0,0.,24.0,0.,24.0
1980-11-13 13:57:10.850 ,6,0,0.,24.0,0.,24.0,0.,24.0,0.,24.0
1980-11-13 13:57:34.850 ,7,1,3.,24.0,0.,24.0,0.,24.0,0.,24.0
1980-11-13 13:57:58.850 ,7,0,13.,24.0,0.,24.0,0.,24.0,0.,24.0
1980-11-13 13:58:22.850 ,7,1,8.,24.0,0.,24.0,0.,24.0,0.,24.0
1980-11-13 13:58:46.850 ,7,0,12.,24.0,0.,24.0,0.,24.0,0.,24.0
1980-11-13 13:59:10.850 ,6,1,6.,24.0,0.,24.0,0.,24.0,0.,24.0
1980-11-13 13:59:34.850 ,6,0,0.,24.0,0.,24.0,0.,24.0,0.,24.0
1980-11-13 13:59:58.850 ,5,1,0.,24.0,0.,24.0,0.,24.0,0.,24.0
1980-11-13 14:00:22.850 ,5,0,0.,24.0,0.,24.0,0.,24.0,0.,24.0
1980-11-13 14:00:46.850 ,4,1,0.,24.0,0.,24.0,0.,24.0,0.,24.0
1980-11-13 14:01:10.850 ,4,0,0.,24.0,0.,24.0,0.,24.0,0.,24.0
1980-11-13 14:01:34.850 ,3,1,0.,24.0,0.,24.0,0.,24.0,0.,24.0
1980-11-13 14:01:58.850 ,3,0,0.,24.0,0.,24.0,0.,24.0,0.,24.0
1980-11-13 14:02:22.850 ,2,1,0.,24.0,0.,24.0,0.,24.0,0.,24.0
1980-11-13 14:02:46.850 ,2,0,0.,24.0,0.,24.0,0.,24.0,0.,24.0
1980-11-13 14:03:10.850 ,1,1,0.,24.0,0.,24.0,0.,24.0,0.,24.0
1980-11-13 14:03:34.850 ,1,0,0.,24.0,0.,24.0,0.,24.0,0.,24.0
1980-11-13 14:03:58.850 ,0,1,0.,24.0,0.,24.0,0.,24.0,0.,24.0
1980-11-13 14:04:22.850 ,0,0,0.,24.0,0.,24.0,0.,24.0,0.,24.0
1980-11-13 14:04:46.850 ,0,1,0.,24.0,0.,24.0,0.,24.0,0.,24.0
1980-11-13 14:05:10.850 ,0,0,0.,24.0,0.,24.0,0.,24.0,0.,24.0
1980-11-13 14:05:34.850 ,1,1,0.,24.0,0.,24.0,0.,24.0,0.,24.0
1980-11-13 14:05:58.850 ,1,0,0.,24.0,0.,24.0,0.,24.0,0.,24.0
1980-11-13 14:06:22.850 ,2,1,0.,24.0,0.,24.0,0.,24.0,0.,24.0
1980-11-13 14:06:46.850 ,2,0,0.,24.0,0.,24.0,0.,24.0,0.,24.0
1980-11-13 14:07:10.850 ,3,1,0.,24.0,0.,24.0,0.,24.0,0.,24.0
1980-11-13 14:07:34.850 ,3,0,0.,24.0,0.,24.0,0.,24.0,0.,24.0
1980-11-13 14:07:58.850 ,4,1,0.,24.0,0.,24.0,0.,24.0,0.,24.0
1980-11-13 14:08:22.850 ,0,0,0.,24.0,0.,24.0,0.,24.0,0.,24.0
1980-11-13 14:08:50.450 ,0,0,0.,24.0,0.,24.0,0.,24.0,0.,24.0
1980-11-13 14:09:10.850 ,0,0,0.,24.0,0.,24.0,0.,24.0,0.,24.0
1980-11-13 14:09:34.850 ,6,1,0.,24.0,0.,24.0,0.,24.0,0.,24.0
1980-11-13 14:09:58.850 ,6,0,0.,24.0,0.,24.0,0.,24.0,0.,24.0
1980-11-13 14:10:22.850 ,7,1,1.,24.0,0.,24.0,0.,24.0,0.,24.0
1980-11-13 14:10:46.850 ,7,0,11.,24.0,0.,24.0,0.,24.0,0.,24.0
1980-11-13 14:11:10.850 ,7,1,11.,24.0,1.,24.0,0.,24.0,0.,24.0
1980-11-13 14:11:34.850 ,7,0,9.,24.0,0.,24.0,0.,24.0,0.,24.0
1980-11-13 14:11:58.850 ,6,1,6.,24.0,0.,24.0,0.,24.0,0.,24.0
1980-11-13 14:12:22.850 ,6,0,0.,24.0,0.,24.0,0.,24.0,0.,24.0
1980-11-13 14:12:46.850 ,5,1,0.,24.0,0.,24.0,0.,24.0,0.,24.0
1980-11-13 14:13:10.850 ,5,0,0.,24.0,0.,24.0,0.,24.0,0.,24.0
1980-11-13 14:13:34.850 ,4,1,0.,24.0,0.,24.0,0.,24.0,0.,24.0
1980-11-13 14:13:58.850 ,4,0,0.,24.0,0.,24.0,0.,24.0,0.,24.0
1980-11-13 14:14:22.850 ,3,1,0.,24.0,0.,24.0,0.,24.0,0.,24.0
1980-11-13 14:14:46.850 ,3,0,0.,24.0,0.,24.0,0.,24.0,0.,24.0
1980-11-13 14:15:10.850 ,2,1,0.,24.0,0.,24.0,0.,24.0,0.,24.0
1980-11-13 14:15:34.850 ,2,0,0.,24.0,0.,24.0,0.,24.0,0.,24.0
1980-11-13 14:15:58.850 ,1,1,0.,24.0,0.,24.0,0.,24.0,0.,24.0
1980-11-13 14:16:22.850 ,1,0,0.,24.0,0.,24.0,0.,24.0,0.,24.0
1980-11-13 14:16:46.850 ,0,1,0.,24.0,0.,24.0,0.,24.0,0.,24.0
1980-11-13 14:17:10.850 ,0,0,0.,24.0,0.,24.0,0.,24.0,0.,24.0
1980-11-13 14:17:34.850 ,0,1,0.,24.0,0.,24.0,0.,24.0,0.,24.0
1980-11-13 14:17:58.850 ,0,0,0.,24.0,0.,24.0,0.,24.0,0.,24.0
1980-11-13 14:18:22.850 ,1,1,0.,24.0,0.,24.0,0.,24.0,0.,24.0
1980-11-13 14:18:46.850 ,1,0,0.,24.0,0.,24.0,0.,24.0,0.,24.0
1980-11-13 14:19:10.850 ,2,1,0.,24.0,0.,24.0,0.,24.0,0.,24.0
1980-11-13 14:19:34.850 ,2,0,0.,24.0,0.,24.0,0.,24.0,0.,24.0
1980-11-13 14:19:58.850 ,3,1,0.,24.0,0.,24.0,0.,24.0,0.,24.0
1980-11-13 14:20:22.850 ,3,0,0.,24.0,0.,24.0,0.,24.0,0.,24.0
1980-11-13 14:20:46.850 ,4,1,0.,24.0,0.,24.0,0.,24.0,0.,24.0
1980-11-13 14:21:10.850 ,4,0,0.,24.0,0.,24.0,0.,24.0,0.,24.0
1980-11-13 14:21:34.850 ,5,1,0.,24.0,0.,24.0,0.,24.0,0.,24.0
1980-11-13 14:21:58.850 ,5,0,0.,24.0,0.,24.0,0.,24.0,0.,24.0
1980-11-13 14:22:22.850 ,6,1,0.,24.0,0.,24.0,0.,24.0,0.,24.0
1980-11-13 14:22:46.850 ,6,0,0.,24.0,0.,24.0,0.,24.0,0.,24.0
1980-11-13 14:23:10.850 ,7,1,1.,24.0,0.,24.0,0.,24.0,0.,24.0
1980-11-13 14:23:34.850 ,7,0,8.,24.0,0.,24.0,0.,24.0,0.,24.0
1980-11-13 14:23:58.850 ,7,1,7.,24.0,0.,24.0,0.,24.0,0.,24.0
1980-11-13 14:24:22.850 ,7,0,12.,24.0,0.,24.0,0.,24.0,0.,24.0
1980-11-13 14:24:46.850 ,6,1,9.,24.0,0.,24.0,0.,24.0,0.,24.0
1980-11-13 14:25:10.850 ,6,0,0.,24.0,0.,24.0,0.,24.0,0.,24.0
1980-11-13 14:25:34.850 ,5,1,0.,24.0,0.,24.0,0.,24.0,0.,24.0
1980-11-13 14:25:58.850 ,5,0,0.,24.0,0.,24.0,0.,24.0,0.,24.0
1980-11-13 14:26:22.850 ,4,1,0.,24.0,0.,24.0,0.,24.0,0.,24.0
1980-11-13 14:26:46.850 ,4,0,0.,24.0,0.,24.0,0.,24.0,0.,24.0
1980-11-13 14:27:10.850 ,3,1,0.,24.0,0.,24.0,0.,24.0,0.,24.0
1980-11-13 14:27:34.850 ,3,0,0.,24.0,0.,24.0,0.,24.0,0.,24.0
1980-11-13 14:27:58.850 ,2,1,0.,24.0,0.,24.0,0.,24.0,0.,24.0
1980-11-13 14:28:22.850 ,2,0,0.,24.0,0.,24.0,0.,24.0,0.,24.0
1980-11-13 14:28:46.850 ,1,1,0.,24.0,0.,24.0,0.,24.0,0.,24.0
1980-11-13 14:29:10.850 ,1,0,0.,24.0,0.,24.0,0.,24.0,0.,24.0
1980-11-13 14:29:34.850 ,0,1,0.,24.0,0.,24.0,0.,24.0,0.,24.0
1980-11-13 14:29:58.850 ,0,0,0.,24.0,0.,24.0,0.,24.0,0.,24.0
1980-11-13 14:30:22.850 ,0,1,0.,24.0,0.,24.0,0.,24.0,0.,24.0
1980-11-13 14:30:46.850 ,0,0,0.,24.0,0.,24.0,0.,24.0,0.,24.0
1980-11-13 14:31:10.850 ,1,1,0.,24.0,0.,24.0,0.,24.0,0.,24.0
1980-11-13 14:31:34.850 ,1,0,0.,24.0,0.,24.0,0.,24.0,0.,24.0
1980-11-13 14:31:58.850 ,2,1,0.,24.0,0.,24.0,0.,24.0,0.,24.0
1980-11-13 14:32:22.850 ,2,0,0.,24.0,0.,24.0,0.,24.0,0.,24.0
1980-11-13 14:32:46.850 ,3,1,0.,24.0,0.,24.0,0.,24.0,0.,24.0
1980-11-13 14:33:10.850 ,3,0,0.,24.0,0.,24.0,0.,24.0,0.,24.0
1980-11-13 14:33:34.850 ,4,1,0.,24.0,1.,24.0,0.,24.0,0.,24.0
1980-11-13 14:33:58.850 ,4,0,0.,24.0,0.,24.0,0.,24.0,0.,24.0
1980-11-13 14:34:22.850 ,5,1,0.,24.0,0.,24.0,0.,24.0,0.,24.0
1980-11-13 14:34:46.850 ,5,0,0.,24.0,0.,24.0,0.,24.0,0.,24.0
1980-11-13 14:35:10.850 ,6,1,0.,24.0,0.,24.0,0.,24.0,0.,24.0